Location: Unspecified
(0.0000°N, 0.0000°E)
Time: 06:07:11
(UTC+00:00)

Fuji - Pass Details

Date: 05 December 2022
Orbit: 1479 x 1496 km, 50.0° (Epoch: 28 January)

Event Time Altitude Azimuth Distance (km) Brightness Sun altitude
Rises 03:49:58 0° 191° (SSW) 4,624 ? -27.7°
Reaches altitude 10° 03:53:56 10° 177° (S) 3,642 ? -26.8°
Maximum altitude 04:00:36 22° 129° (SE) 2,792 ? -25.3°
Drops below altitude 10° 04:07:13 10° 82° (E) 3,629 ? -23.8°
Sets 04:11:05 0° 68° (ENE) 4,604 ? -22.9°
